Flag for El Salvador Weather past 2 weeks in San Salvador, El Salvador

Now
93 °F

Sunny.


Feels Like: 96 °F
Forecast: 65 / 91 °F
Wind: 8 mph from Northeast

Location: San Salvador / Ilopango

Current Time: Mar 1, 2015 at 1:44:02 PM

Latest Report: Mar 1, 2015 at 12:50 PM


Visibility: 10 mi

Pressure: 30.01 "Hg

Humidity: 41%

Dew point: 66 °F

Location of San SalvadorLocation

Historic Weather in San Salvador — Graph

°F

San Salvador temperature yesterday

Maximum temperature yesterday: 91 °F (at 12:50 PM)
Minimum temperature yesterday: 66 °F (at 6:50 AM)
Average temperature yesterday: 80 °F

Past Weeks' High & Low Weather Summary

 TemperatureHumidityPressure
High93 °F (Feb 23, 1:50 PM)94% (Feb 18, 6:50 AM)30.09 "Hg (Feb 18, 6:50 AM)
Low63 °F (Feb 15, 5:50 AM)36% (Feb 24, 2:50 PM)29.86 "Hg (Feb 17, 6:50 PM)
Average78 °F65%29.99 "Hg
* Reported Feb 14 11:50 AM — Mar 1 11:50 AM, San Salvador, Weather by CustomWeather, © 2015

Note: Actual official high and low records may vary slightly from our data, if they occured in-between our weather recording intervals... More about our weather records

Advertising

San Salvador weather history for previous 24 hours

 ConditionsComfort  
Time TempWeatherWind HumidityBarometerVisibility
11:50 AM
Sun, Mar 1
90 °FSunny.12 mph41%30.04 "Hg10 mi
10:50 AM88 °FSunny.12 mph46%30.07 "Hg10 mi
9:50 AM82 °FSunny.8 mph62%30.09 "Hg10 mi
8:50 AM77 °FSunny.9 mph65%30.09 "Hg10 mi
7:50 AM72 °FSunny.12 mph50%30.07 "Hg10 mi
6:50 AM68 °FSunny.3 mph78%30.04 "Hg10 mi
5:50 AM68 °FClear.5 mph78%30.04 "Hg10 mi
11:50 PM
Sat, Feb 28
72 °FClear.6 mph78%30.04 "Hg10 mi
10:50 PM75 °FClear.3 mph69%30.04 "Hg10 mi
9:50 PM77 °FPassing clouds.6 mph65%30.04 "HgN/A
8:50 PM77 °FPassing clouds.6 mph69%30.01 "HgN/A
7:50 PM77 °FPassing clouds.No wind65%29.98 "HgN/A
6:50 PM77 °FPassing clouds.5 mph74%29.95 "HgN/A
5:50 PM81 °FPassing clouds.10 mph66%29.95 "HgN/A
4:50 PM82 °FPassing clouds.16 mph62%29.92 "HgN/A
3:50 PM86 °FPassing clouds.14 mph55%29.92 "HgN/A
2:50 PM91 °FScattered clouds.7 mph41%29.92 "HgN/A
1:50 PM90 °FScattered clouds.7 mph49%29.98 "HgN/A
Weather by CustomWeather, © 2015

See weather overviewHow to use our weather pages